TimeMDT,TemperatureF,Dew PointF,Humidity,Sea Level PressureIn,VisibilityMPH,Wind Direction,Wind SpeedMPH,Gust SpeedMPH,PrecipitationIn,Events,Conditions,WindDirDegrees,DateUTC
12:53 AM,75.9,48.0,37,29.94,10.0,WSW,3.5,-,N/A,,Clear,240,2013-09-04 06:53:00
1:53 AM,72.0,48.9,44,29.97,10.0,WSW,5.8,-,N/A,,Clear,240,2013-09-04 07:53:00
2:53 AM,75.0,52.0,44,29.97,10.0,WNW,13.8,-,N/A,,Clear,290,2013-09-04 08:53:00
3:53 AM,75.0,53.1,46,29.96,10.0,SW,6.9,-,0.00,,Overcast,220,2013-09-04 09:53:00
4:53 AM,73.0,54.0,51,29.97,10.0,WSW,12.7,-,N/A,,Scattered Clouds,240,2013-09-04 10:53:00
5:53 AM,75.0,53.1,46,29.98,10.0,West,11.5,-,N/A,,Partly Cloudy,260,2013-09-04 11:53:00
6:53 AM,73.9,54.0,50,29.98,10.0,WSW,15.0,-,N/A,,Mostly Cloudy,250,2013-09-04 12:53:00
7:53 AM,75.0,55.0,50,30.01,10.0,West,12.7,-,0.00,,Mostly Cloudy,280,2013-09-04 13:53:00
8:53 AM,77.0,55.9,48,30.01,10.0,WSW,15.0,-,N/A,,Scattered Clouds,240,2013-09-04 14:53:00
9:53 AM,77.0,57.0,50,30.03,10.0,WSW,12.7,-,N/A,,Mostly Cloudy,240,2013-09-04 15:53:00
10:53 AM,79.0,57.9,48,30.03,10.0,SW,10.4,-,N/A,,Scattered Clouds,230,2013-09-04 16:53:00
11:53 AM,84.0,55.0,37,30.01,10.0,SW,13.8,20.7,N/A,,Scattered Clouds,230,2013-09-04 17:53:00
12:53 PM,86.0,54.0,33,29.99,10.0,SSW,11.5,-,N/A,,Scattered Clouds,200,2013-09-04 18:53:00
1:53 PM,88.0,54.0,31,29.98,10.0,SSW,9.2,-,N/A,,Partly Cloudy,200,2013-09-04 19:53:00
2:53 PM,91.0,53.1,27,29.96,10.0,Calm,Calm,-,N/A,,Scattered Clouds,0,2013-09-04 20:53:00
3:53 PM,91.0,52.0,26,29.95,10.0,SSW,8.1,-,N/A,,Scattered Clouds,210,2013-09-04 21:53:00
4:53 PM,90.0,52.0,27,29.94,10.0,NE,6.9,-,N/A,,Scattered Clouds,40,2013-09-04 22:53:00
5:53 PM,89.1,51.1,27,29.95,10.0,East,3.5,-,N/A,,Scattered Clouds,100,2013-09-04 23:53:00
6:53 PM,84.9,53.1,33,29.96,10.0,West,12.7,-,N/A,,Mostly Cloudy,260,2013-09-05 00:53:00
7:53 PM,81.0,55.9,42,29.98,10.0,SW,9.2,-,N/A,,Mostly Cloudy,220,2013-09-05 01:53:00
8:53 PM,77.0,57.0,50,30.00,10.0,SSW,9.2,-,N/A,,Scattered Clouds,200,2013-09-05 02:53:00
9:53 PM,77.0,55.9,48,30.01,10.0,SW,6.9,-,N/A,,Partly Cloudy,220,2013-09-05 03:53:00
10:53 PM,77.0,55.0,47,30.00,10.0,Calm,Calm,-,N/A,,Partly Cloudy,0,2013-09-05 04:53:00
11:53 PM,73.9,55.9,53,29.99,10.0,SSW,5.8,-,N/A,,Clear,210,2013-09-05 05:53:00